Miscellaneous Local Product
Issued by NWS Hastings, NE

Home | Current Version | Previous Version | Graphics & Text | Print | Product List | Glossary On
Versions: 1 2 3 4 5 6 7 8 9 10 11 12 13 14 15 16 17 18 19 20 21 22 23 24 25 26 27 28 29 30 31 32 33 34 35 36 37 38 39 40 41 42 43 44 45 46 47 48 49 50
000
AXUS43 KGID 030302
MISGRI

GID CWA HOURLY WEATHER ROUNDUP
NATIONAL WEATHER SERVICE HASTINGS NE
1000 PM CDT SAT MAY 02 2015

NOTE: "FAIR" INDICATES FEW OR NO CLOUDS BELOW 12,000 FEET WITH NO
SIGNIFICANT WEATHER AND/OR OBSTRUCTIONS TO VISIBILITY.

...SOUTH CENTRAL NEBRASKA...

CITY           SKY/WX    TMP DP  RH WIND       PRES   REMARKS
GRAND ISLAND   PTCLDY    72  54  53 S13       29.72R
HASTINGS       MOCLDY    73  53  49 S10G20    29.73R
KEARNEY        MOCLDY    72  46  40 SE7       29.73R
ORD            PTCLDY    70  49  47 SE8       29.70R
YORK           CLOUDY    75  55  50 S18G24    29.73R
AURORA         MOCLDY    73  54  50 S13G20    29.72R
LEXINGTON      PTCLDY    72  45  37 SW9       29.74R
HOLDREGE       CLOUDY    69  46  44 SW5       29.74R
HEBRON         MOCLDY    72  53  50 S13G18    29.75S

...NEBRASKA PANHANDLE...

CITY           SKY/WX    TMP DP  RH WIND       PRES   REMARKS
CHADRON        MOCLDY    57  42  57 CALM      29.74R
ALLIANCE       CLOUDY    69  39  33 SW20G32   29.79R
SCOTTSBLUFF    CLOUDY    66  40  38 SW10      29.82R
SIDNEY         CLOUDY    62  43  49 S8        29.87F

...WESTERN AND NORTH CENTRAL NEBRASKA...

CITY           SKY/WX    TMP DP  RH WIND       PRES   REMARKS
VALENTINE      PTCLDY    67  42  40 CALM      29.70R
AINSWORTH      PTCLDY    64  47  53 NE9       29.71R
ONEILL         PTCLDY    71  50  48 E7        29.69S
BROKEN BOW     PTCLDY    64  42  44 CALM      29.72R
IMPERIAL       CLOUDY    71  38  29 W15G23    29.81R
NORTH PLATTE   MOCLDY    60  45  57 CALM      29.76R
MCCOOK         CLOUDY    70  47  43 S6        29.76R

...EASTERN NEBRASKA...

CITY           SKY/WX    TMP DP  RH WIND       PRES   REMARKS
NORFOLK        TSTM      68  56  65 SE13      29.71R
SO SIOUX CITY  CLEAR     65  54  67 SE13      29.74S
TEKAMAH        MOCLDY    66  57  72 SE16      29.75S
COLUMBUS       CLOUDY    64  52  63 CALM      29.78F
ALBION         TSTM      62  54  74 S8        29.73R
OMAHA EPPLEY   CLOUDY    67  57  70 SE16      29.76S
OFFUTT AFB     CLOUDY    67  56  68 SE18G24   29.77R
MILLARD        CLOUDY    69  58  67 SE6       29.77R
LINCOLN        CLOUDY    74  52  46 S17       29.76R
NEBRASKA CITY  MOCLDY    66  49  54 S14       29.81R
BEATRICE       MOCLDY    72  51  48 S12       29.78S
FALLS CITY     CLEAR     65  53  65 SE9       29.83R

...NORTHERN KANSAS...

CITY           SKY/WX    TMP DP  RH WIND       PRES   REMARKS
GOODLAND       CLOUDY    70  46  42 W18       29.85R
HILL CITY      CLOUDY    69  51  52 S8        29.76R
NORTON         CLEAR     68  43  40 S7        29.74R
PHILLIPSBURG   CLEAR     79  50  36 S13       29.74R
SMITH CENTER   CLEAR     73  50  43 S14       29.76R
HAYS           PTCLDY    72  46  40 S16       29.79R
RUSSELL        MOCLDY    73  51  46 S21       29.77R
CONCORDIA      PTCLDY    73  54  51 S21G31    29.78R
SALINA         MOCLDY    73  55  53 S14       29.80S
TOPEKA         PTCLDY    69  53  56 SE9       29.88R



USA.gov is the U.S. government's official web portal to all federal, state and local government web resources and services.